Regional Weather Roundup
Issued by NWS

Home | Current Version | Previous Version | Text Only | Print | Product List | Glossary Off
Versions: 1 2 3 4 5 6 7 8 9 10 11 12 13 14 15 16 17 18 19 20 21 22 23 24 25 26 27 28 29 30 31 32 33 34 35 36 37 38 39 40 41 42 43 44 45 46 47 48 49 50

882
ASUS43 KLOT 220503
RWRIL

ILLINOIS REGIONAL WEATHER ROUNDUP
NATIONAL WEATHER SERVICE CHICAGO/ROMEOVILLE IL
1200 AM CDT TUE AUG 22 2017

NOTE: "FAIR" INDICATES FEW OR NO CLOUDS BELOW 12,000 FEET WITH NO
SIGNIFICANT WEATHER AND/OR OBSTRUCTIONS TO VISIBILITY.

* THESE STATIONS ARE NOT UNDER NWS QUALITY CONTROL. THEY ALSO MAY NOT
  REPORT WEATHER SUCH AS PRECIPITATION OR FOG.

ILZ001-002-007-009-015-016-024-220600-
NORTHWEST ILLINOIS

CITY           SKY/WX    TMP DP  RH WIND       PRES   REMARKS
MOLINE         LGT RAIN  74  70  87 SW14      29.89F
STERLING*      CLOUDY    74  70  87 VRB7      29.86F
SAVANNA*       CLOUDY    73  71  93 SW8       29.87R
$$

ILZ003-004-008-010-011-017-018-220600-
NORTH CENTRAL ILLINOIS

CITY           SKY/WX    TMP DP  RH WIND       PRES   REMARKS
ROCKFORD       CLOUDY    73  69  87 SW9       29.86F
FREEPORT*      CLOUDY    71  70  96 SW6       29.88S
ROCHELLE*      CLOUDY    72  70  93 S13       29.86F
$$

ILZ005-006-012>014-019>023-220600-
NORTHEAST ILLINOIS

CITY           SKY/WX    TMP DP  RH WIND       PRES   REMARKS
CHICAGO-OHARE  LGT RAIN  74  69  85 S13       29.89F
CHICAGO-MIDWAY TSTM      72  69  90 SW10      29.92F
AURORA         PTCLDY    72  70  93 S8        29.90F
LANSING*       TSTM      73  67  82 W20G37    29.96R
JOLIET*        CLOUDY    71  70  97 S5        29.93F
WAUKEGAN       CLOUDY    75  70  84 SW14      29.85F
DUPAGE AIRPORT CLOUDY    72  72 100 S10       29.89F
KANKAKEE*      CLOUDY    73  72  94 W13       29.97R
WHEELING       CLOUDY    75  71  87 S16       29.89F
MORRIS*        CLOUDY    69  68  96 S3        29.92F
NORTHERLY ISL    N/A     71  67  87 S7          N/A
$$

LMZ740>746-220600-
SOUTHERN LAKE MICHIGAN

STATION/POSITION SKY/WX   TEMP    WIND        PRES    VSBY  WAVE
                          AIR SEA DIR/SP/G                  HT/PER
                          (F)     (DEG/KT/KT) (MB)    (MI)  (FT/S)
SOUTHERN BUOY              74 72  220/ 12/ 12 1012.0          1/ 3
WILMETTE HARBOR            78 74  210/ 21/ 27   N/A           2/ 2
HARRISON CRIB              74     220/ 28/ 38   N/A
CALUMET HARBOR             77     230/  5/  9 1012.8F
BURNS HARBOR               76     190/ 13/ 17 1013.5F
MICHIGAN CITY              76     180/ 11/ 13   N/A
MICHIGAN CITY 6N           77 74  210/ 12/ 16   N/A           2/ 3
ST. JOSEPH                 76 74  220/ 14/ 17 1012.2F         2/ 3
$$

ILZ025>027-034>036-040-047-049-050-058-095>099-220600-
WEST-CENTRAL ILLINOIS

CITY           SKY/WX    TMP DP  RH WIND       PRES   REMARKS
QUINCY         TSTM      71  68  90 N12       29.97R
GALESBURG*     LGT RAIN  71  70  98 S5        29.97S
MACOMB*        RAIN      72  71  97 W3        30.00F
JACKSONVILLE*  MOCLDY    74  69  83 E5        29.94F
$$

ILZ028>032-037-038-041>044-048-051>054-059>061-220600-
CENTRAL ILLINOIS

CITY           SKY/WX    TMP DP  RH WIND       PRES   REMARKS
BLOOMINGTON    CLOUDY    71  69  93 SW8       29.99F
DECATUR        CLOUDY    76  68  76 S15       29.96F
PEORIA         CLOUDY    75  74  96 SW13      29.95F
LACON*         CLOUDY    73  73  98 S6        29.93F
LINCOLN*       CLOUDY    76  72  87 W6        29.98F
SPRINGFIELD    LGT RAIN  76  73  91 CALM      29.97F
TAYLORVILLE    NOT AVBL
$$

ILZ033-039-045-046-055>057-062-063-220600-
EAST-CENTRAL ILLINOIS

CITY           SKY/WX    TMP DP  RH WIND       PRES   REMARKS
CHAMPAIGN      CLOUDY    74  67  78 S13       29.97F
RANTOUL*       PTCLDY    76  70  81 S6        29.96F
MATTOON        CLOUDY    74  69  85 S10       29.99S
PARIS*         CLOUDY    73  67  82 S12       30.00F
$$

ILZ079-100>102-220600-
SOUTHWEST ILLINOIS

CITY           SKY/WX    TMP DP  RH WIND       PRES   REMARKS
ALTON          PTCLDY    76  74  95 S6        29.98F
BELLEVILLE     PTCLDY    76  73  89 SW3       30.01S
CAHOKIA*       PTCLDY    79  74  84 SE6       29.98F HX  82
SPARTA*        PTCLDY    75  73  91 SE3       30.04R
$$

ILZ064>066-069>071-074>076-080>082-084>086-088>090-092>094-220600-
SOUTH-CENTRAL ILLINOIS

CITY           SKY/WX    TMP DP  RH WIND       PRES   REMARKS
CARBONDALE     CLEAR     73  70  90 SE6       30.03F
CAIRO*         CLEAR     79  75  87 S6        30.04S HX  83
EFFINGHAM*     CLOUDY    74  71  89 S8        30.02F
MARION         CLEAR     77  75  94 S3        30.04S
MT. VERNON       N/A     72  70  93 S3        30.03F
CENTRALIA*     CLOUDY    74  72  92 S9        30.01S
SALEM*         CLOUDY    75  70  83 S5        30.02S
METROPOLIS*    CLEAR     79  72  81 S5        30.05F HX  81
$$

ILZ067-068-072-073-078-083-087-091-220600-
SOUTHEAST ILLINOIS

CITY           SKY/WX    TMP DP  RH WIND       PRES   REMARKS
LAWRENCEVILLE  PTCLDY    72  71  97 SW5       30.02F
FLORA*         PTCLDY    73  71  93 S7        30.02S
FAIRFIELD*     PTCLDY    72  71  98 S3        30.02S
HARRISBURG*    PTCLDY    72  71  97 CALM      30.04F
ROBINSON*      PTCLDY    70  69  96 S5        30.02S
CARMI*         CLEAR     71  71  99 S3        30.03S
$$

ABBREVIATIONS USED IN REMARKS
   TC - TEMPERATURE IN CELSIUS
  WCI - WIND CHILL INDEX
   HX - HEAT INDEX
  VSB - VISIBILITY
$$





USA.gov is the U.S. government's official web portal to all federal, state and local government web resources and services.